DateTimeUTC,F1_A11,F1_S11,BsB_S11,BsG_S11,BsR_S11,BbsB_S11,BbsG_S11,BbsR_S11,BaB_A11,BaG_A11,BaR_A11,Tu_S11,T_S11,Uu_S11,U_S11,P_S11,T1_A11
2021-08-07T03:00:00Z,00000200,21000000,,,,,,,0000.11,-000.39,-000.42,17.9,25.0,,00.0,0666.0,30.9
2021-08-07T03:01:00Z,00000200,21000000,,,,,,,0000.15,-000.03,0000.19,17.9,25.0,,00.0,0666.0,30.9
2021-08-07T03:02:00Z,00000200,21000000,,,,,,,-000.13,-000.27,-000.18,17.9,25.0,,00.0,0666.0,30.9
2021-08-07T03:03:00Z,00000200,61000000,,,,,,,0000.27,0000.71,0000.16,17.9,25.0,,00.0,0666.0,30.9
2021-08-07T03:04:00Z,00000200,41000000,0002.29,0001.99,0000.84,0000.82,0000.25,0000.00,0000.37,0000.41,0000.70,17.9,24.7,00.0,00.0,0666.9,30.9
2021-08-07T03:05:00Z,00000200,01000000,0004.22,0001.93,0001.19,0001.17,0000.40,-000.11,0001.09,0000.57,0000.29,17.8,24.6,00.0,00.0,0667.0,30.9
2021-08-07T03:06:00Z,00000200,01000000,0004.26,0002.04,0001.02,0000.98,0000.53,-000.01,0000.81,0000.36,0000.71,17.8,24.6,00.0,00.0,0667.0,30.9
2021-08-07T03:07:00Z,00000200,01000000,0004.13,0002.35,0001.42,0000.46,0000.36,-000.04,0000.86,0001.17,0000.47,17.7,24.5,00.0,00.0,0667.0,30.9
2021-08-07T03:08:00Z,00000200,01000000,0005.01,0002.57,0001.31,0000.79,0000.27,0000.01,0000.99,0001.01,0000.71,17.7,24.5,00.0,00.0,0667.0,30.9
2021-08-07T03:09:00Z,00000200,01000000,0004.60,0003.10,0001.54,0001.18,0000.48,0000.03,0001.12,0000.74,0000.45,17.7,24.5,00.0,00.0,0667.0,30.9
2021-08-07T03:10:00Z,00000200,01000000,0004.84,0002.60,0001.34,0001.17,0000.44,0000.16,0000.71,0001.05,0000.94,17.8,24.5,00.0,00.0,0667.0,30.9
2021-08-07T03:11:00Z,00000200,01000000,0004.42,0002.75,0001.59,0001.19,0000.32,0000.05,0001.05,0000.63,0000.61,18.0,24.5,00.0,00.0,0666.9,30.9
2021-08-07T03:12:00Z,00000200,01000000,0005.27,0002.86,0001.37,0001.06,0000.41,0000.10,0001.20,0000.95,0000.43,18.1,24.6,00.0,00.0,0666.9,31.0
2021-08-07T03:13:00Z,00000200,01000000,0004.88,0002.72,0001.46,0001.21,0000.62,0000.08,0000.86,0001.15,0000.86,18.1,24.6,00.0,00.0,0666.9,30.9
2021-08-07T03:14:00Z,00000200,01000000,0004.23,0002.70,0001.59,0001.06,0000.46,-000.01,0000.89,0000.78,0000.76,18.2,24.6,00.0,00.0,0666.9,30.9
2021-08-07T03:15:00Z,00000200,01000000,0004.10,0002.80,0001.20,0001.42,0000.35,0000.24,0000.87,0000.67,0000.73,18.1,24.6,00.0,00.0,0666.9,30.9
2021-08-07T03:16:00Z,00000200,01000000,0003.34,0002.65,0001.35,0001.00,0000.59,0000.29,0000.33,0000.49,0000.17,18.0,24.6,00.0,00.0,0666.9,30.9
2021-08-07T03:17:00Z,00000200,01000000,0004.87,0002.68,0001.64,0001.23,0000.52,0000.36,0000.85,0000.87,0000.40,18.0,24.6,00.0,00.0,0666.9,30.9
2021-08-07T03:18:00Z,00000200,01000000,0003.77,0002.98,0001.46,0000.35,0000.41,0000.66,0001.07,0000.97,0000.82,17.9,24.5,00.0,00.0,0666.9,30.9
2021-08-07T03:19:00Z,00000200,01000000,0003.95,0002.80,0001.01,0000.91,0000.14,0000.39,0001.24,0000.73,0000.81,17.8,24.5,00.0,00.0,0666.9,30.9
2021-08-07T03:20:00Z,00000200,01000000,0002.83,0001.81,0000.58,0000.98,0000.25,-000.09,0000.11,0000.28,0000.04,17.8,24.5,00.0,00.0,0666.9,30.9
2021-08-07T03:21:00Z,00000200,01000000,0003.26,0002.08,0001.28,0000.18,0000.38,0000.34,0000.89,0000.87,0000.52,17.8,24.4,00.1,00.0,0666.9,30.9
2021-08-07T03:22:00Z,00000200,01000000,0004.06,0002.47,0001.07,0001.09,0000.57,0000.19,0001.17,0001.14,0000.89,17.7,24.4,00.1,00.0,0666.9,30.9
2021-08-07T03:23:00Z,00000200,01000000,0003.90,0002.66,0001.28,0000.79,0000.28,0000.34,0001.09,0000.80,0001.25,17.7,24.4,00.1,00.0,0666.9,30.9
2021-08-07T03:24:00Z,00000200,01000000,0003.98,0003.03,0001.37,0000.89,0000.45,-000.15,0000.93,0001.20,0000.32,17.7,24.4,00.1,00.1,0666.8,30.9
2021-08-07T03:25:00Z,00000200,01000000,0004.90,0003.12,0001.81,0001.32,0000.46,0000.39,0001.17,0000.95,0001.14,17.8,24.4,00.1,00.1,0666.8,30.9
2021-08-07T03:26:00Z,00000200,01000000,0004.67,0003.07,0001.33,0000.59,0000.33,-000.02,0001.07,0001.18,0000.35,18.0,24.5,00.1,00.1,0666.8,30.9
2021-08-07T03:27:00Z,00000200,01000000,0004.86,0002.87,0001.69,0001.24,0000.61,0000.32,0000.98,0000.66,0000.81,18.1,24.5,00.1,00.0,0666.8,30.9
2021-08-07T03:28:00Z,00000200,01000000,0005.64,0003.17,0001.55,0001.24,0000.51,0000.16,0000.71,0000.83,0000.85,18.2,24.6,00.1,00.1,0666.8,31.0
2021-08-07T03:29:00Z,00000200,01000000,0005.13,0002.91,0001.87,0000.65,0000.25,0000.28,0001.17,0000.66,0000.20,18.2,24.6,00.1,00.1,0666.8,30.9
2021-08-07T03:30:00Z,00000200,01000000,0003.74,0002.47,0001.55,0000.46,0000.20,0000.19,0000.32,0000.79,0000.64,18.2,24.6,00.1,00.1,0666.8,31.0
2021-08-07T03:31:00Z,00000200,01000000,0004.02,0002.42,0001.35,0000.60,0000.75,0000.03,0000.75,0000.57,0000.25,18.1,24.6,00.1,00.1,0666.8,31.0
2021-08-07T03:32:00Z,00000200,01000000,0003.84,0002.55,0001.33,0001.30,0000.41,0000.32,0001.25,0000.96,0000.50,18.0,24.5,00.1,00.1,0666.8,30.9
2021-08-07T03:33:00Z,00000200,01000000,0004.13,0002.56,0001.64,0000.76,0000.36,0000.22,0000.78,0001.15,0000.79,18.0,24.5,00.1,00.1,0666.8,30.9
2021-08-07T03:34:00Z,00000200,01000000,0003.60,0002.41,0001.29,0000.80,0000.74,0000.19,0000.66,0000.29,0000.71,17.9,24.5,00.1,00.1,0666.8,30.9
2021-08-07T03:35:00Z,00000200,01000000,0003.78,0002.34,0001.01,0000.39,0000.28,0000.30,0001.20,0000.69,0000.46,17.8,24.4,00.1,00.1,0666.8,30.9
2021-08-07T03:36:00Z,00000200,01000000,0004.30,0002.96,0001.58,0001.00,0000.48,0000.39,0000.68,0000.86,0000.63,17.8,24.4,00.1,00.1,0666.8,30.9
2021-08-07T03:37:00Z,00000200,01000000,0004.75,0003.16,0001.43,0000.16,0000.52,0000.55,0000.79,0000.73,0000.57,17.7,24.4,00.1,00.1,0666.8,30.9
2021-08-07T03:38:00Z,00000200,01000000,0004.09,0002.40,0001.76,0000.17,0000.64,0000.55,0001.26,0001.30,0000.56,17.7,24.4,00.1,00.1,0666.8,30.9
2021-08-07T03:39:00Z,00000200,01000000,0003.96,0002.60,0001.13,0000.99,0000.34,0000.19,0001.19,0000.70,0001.09,17.8,24.4,00.1,00.1,0666.8,30.9
2021-08-07T03:40:00Z,00000200,01000000,0003.46,0001.71,0000.87,0000.94,0000.62,0000.33,0000.33,0000.62,0000.16,17.8,24.4,00.0,00.0,0666.8,30.9
2021-08-07T03:41:00Z,00000200,01000000,0003.05,0001.80,0000.76,0001.21,0000.46,0000.01,0000.83,0000.99,0000.83,18.0,24.4,00.1,00.1,0666.8,30.9
2021-08-07T03:42:00Z,00000200,01000000,0002.11,0001.67,0001.04,0000.80,0000.45,0000.24,0001.01,0000.60,0000.34,18.1,24.5,00.1,00.1,0666.8,30.9
2021-08-07T03:43:00Z,00000200,01000000,0002.92,0001.83,0000.94,0000.25,0000.37,0000.16,0000.60,0000.50,0000.06,18.2,24.6,00.1,00.1,0666.8,31.0
2021-08-07T03:44:00Z,00000200,01000000,0002.97,0001.78,0000.42,0000.53,0000.23,-000.02,0000.40,0000.44,0000.93,18.3,24.6,00.1,00.0,0666.7,31.0
2021-08-07T03:45:00Z,00000200,01000000,0003.36,0002.06,0000.97,0000.38,0000.63,0000.05,0000.74,0000.57,0000.09,18.3,24.6,00.1,00.0,0666.7,31.0
2021-08-07T03:46:00Z,00000200,01000000,0003.02,0001.90,0000.76,0000.67,0000.60,-000.02,0000.42,0000.38,0000.38,18.2,24.6,00.1,00.1,0666.7,30.9
2021-08-07T03:47:00Z,00000200,01000000,0001.75,0001.30,0000.50,0000.21,0000.15,0000.23,0000.45,0000.56,0000.52,18.2,24.6,00.1,00.1,0666.7,30.9
2021-08-07T03:48:00Z,00000200,01000000,0002.93,0002.09,0001.26,0000.95,0000.55,0000.27,0001.12,0000.74,0000.38,18.1,24.6,00.1,00.1,0666.7,30.9
2021-08-07T03:49:00Z,00000200,01000000,0004.11,0002.55,0001.23,0001.15,0000.25,0000.29,0000.47,0000.98,0000.48,18.0,24.5,00.2,00.1,0666.7,30.9
2021-08-07T03:50:00Z,00000200,01000000,0004.64,0002.91,0001.67,0001.22,0000.55,0000.26,0000.89,0000.09,0000.34,17.9,24.5,00.1,00.1,0666.7,30.9
2021-08-07T03:51:00Z,00000200,01000000,0003.78,0002.71,0001.37,0001.07,0000.41,0000.15,0000.66,0001.02,0000.79,17.9,24.4,00.1,00.1,0666.7,30.9
2021-08-07T03:52:00Z,00000200,01000000,0003.80,0002.11,0001.41,0001.13,0000.53,0000.09,0001.05,0001.14,0000.55,17.8,24.4,00.1,00.1,0666.7,30.9
2021-08-07T03:53:00Z,00000200,01000000,0004.61,0002.39,0001.44,0001.43,0000.56,0000.26,0001.00,0000.93,0000.66,17.8,24.4,00.2,00.1,0666.7,30.9
2021-08-07T03:54:00Z,00000200,01000000,0004.76,0002.76,0001.19,0000.62,0000.40,0000.48,0001.14,0000.88,0000.87,17.8,24.4,00.2,00.1,0666.7,30.9
2021-08-07T03:55:00Z,00000200,01000000,0003.39,0002.37,0001.34,0000.09,0000.60,0000.18,0001.08,0001.16,0000.95,17.9,24.4,00.1,00.1,0666.7,30.9
2021-08-07T03:56:00Z,00000200,01000000,0004.10,0002.50,0001.15,0000.09,0000.30,0000.11,0000.89,0000.52,0000.86,18.0,24.5,00.2,00.1,0666.7,30.9
2021-08-07T03:57:00Z,00000200,41000000,,,,,,,0000.54,0000.84,0000.57,18.1,24.5,,00.0,0666.6,30.9
2021-08-07T03:58:00Z,00000200,61000000,,,,,,,-000.00,-000.11,-000.42,18.0,24.7,00.0,00.0,0665.6,31.0
2021-08-07T03:59:00Z,00000200,21000000,,,,,,,-000.14,0000.03,-000.16,18.0,24.9,,00.0,0665.6,31.0
